Terminal Aerodrome Forecast
Issued by NWS Billings, MT

Home | Current Version | Previous Version | Graphics & Text | Print | Product List | Glossary On
Versions: 1 2 3 4 5 6 7 8 9 10 11 12 13 14 15 16 17 18 19 20
000
FTUS45 KBYZ 171129
TAFMLS
TAF
KMLS 171129Z 1712/1812 32007KT P6SM VCSH OVC250
     FM171700 32020G30KT 6SM -SHRA BKN020 OVC030
     FM172200 28010KT P6SM FEW030 BKN050=

USA.gov is the U.S. government's official web portal to all federal, state and local government web resources and services.